Flag Weather past 2 weeks in Amstetten, Lower Austria, Austria

Now
41 °F

Overcast.


Feels Like: 39 °F
Forecast: 34 / 53 °F
Wind: 3 mph from East

Location: Linz / Hoersching-Flughafen

Current Time: Nov 23, 2014 at 11:52:56 PM

Latest Report: Nov 23, 2014 at 11:00 PM


Visibility: 4 mi

Pressure: 30.31 "Hg

Humidity: 86%

Dew point: 37 °F

Location of AmstettenLocation

Historic Weather in Amstetten — Graph

°F

Amstetten temperature yesterday

Maximum temperature yesterday: 44 °F (at 2:00 PM)
Minimum temperature yesterday: 36 °F (at 10:00 PM)
Average temperature yesterday: 39 °F

Past Weeks' High & Low Weather Summary

 TemperatureHumidityPressure
High66 °F (Nov 12, 2:00 PM)100% (Nov 14, 6:00 AM)30.35 "Hg (Nov 14, 6:00 AM)
Low36 °F (Nov 21, 11:00 PM)54% (Nov 12, 2:00 PM)29.44 "Hg (Nov 16, 3:00 AM)
Average46 °F87%29.94 "Hg
* Reported Nov 8 10:00 PM — Nov 23 10:00 PM, Amstetten, Weather by CustomWeather, © 2014

Note: Actual official high and low records may vary slightly from our data, if they occured in-between our weather recording intervals... More about our weather records

Advertising

Amstetten weather history for previous 24 hours

 ConditionsComfort  
Time TempWeatherWind HumidityBarometerVisibility
10:00 PM
Nov 23
41 °FOvercast.6 mph86%30.31 "Hg4 mi
9:00 PM41 °FOvercast.5 mph88%30.30 "Hg4 mi
8:00 PM41 °FOvercast.N/A89%30.29 "Hg4 mi
7:00 PM39 °FOvercast.N/A90%30.31 "Hg4 mi
6:00 PM41 °FOvercast.5 mph87%30.30 "Hg4 mi
5:00 PM42 °FOvercast.5 mph86%30.30 "Hg5 mi
4:00 PM42 °FOvercast.6 mph85%30.30 "Hg4 mi
3:00 PM42 °FOvercast.5 mph85%30.30 "Hg4 mi
2:00 PM42 °FLow clouds.6 mph88%30.31 "Hg3 mi
1:00 PM41 °FLow clouds.6 mph87%30.32 "Hg3 mi
12:00 PM41 °FLow clouds.6 mph89%30.33 "Hg3 mi
11:00 AM40 °FLow clouds.5 mph89%30.35 "Hg3 mi
10:00 AM40 °FLow clouds.5 mph88%30.35 "Hg3 mi
9:00 AM39 °FLow clouds.5 mph91%30.34 "Hg3 mi
8:00 AM39 °FLow clouds.5 mph90%30.33 "Hg3 mi
7:00 AM39 °FLow clouds.5 mph91%30.32 "Hg3 mi
6:00 AM38 °FLow clouds.3 mph91%30.32 "Hg3 mi
5:00 AM38 °FLow clouds.5 mph91%30.33 "Hg4 mi
4:00 AM38 °FLow clouds.5 mph91%30.32 "Hg4 mi
3:00 AM38 °FLow clouds.3 mph91%30.34 "Hg4 mi
2:00 AM38 °FLow clouds.3 mph91%30.34 "Hg4 mi
1:00 AM38 °FLow clouds.3 mph91%30.32 "Hg3 mi
12:00 AM38 °FLow clouds.5 mph90%30.32 "Hg4 mi
11:00 PM
Nov 22
38 °FLow clouds.5 mph91%30.32 "Hg3 mi
Weather by CustomWeather, © 2014

See weather overviewHow to use our weather pages